TimeCDT,TemperatureF,Dew PointF,Humidity,Sea Level PressureIn,VisibilityMPH,Wind Direction,Wind SpeedMPH,Gust SpeedMPH,PrecipitationIn,Events,Conditions,WindDirDegrees,DateUTC
12:15 AM,64.4,50.0,59,29.95,10.0,SSE,13.8,18.4,N/A,,Clear,150,2012-10-04 05:15:00
12:35 AM,64.4,50.0,59,29.95,10.0,Calm,Calm,-,N/A,,Clear,0,2012-10-04 05:35:00
12:55 AM,64.4,50.0,59,29.96,10.0,Calm,Calm,-,N/A,,Clear,0,2012-10-04 05:55:00
1:15 AM,62.6,50.0,63,29.96,10.0,Calm,Calm,-,N/A,,Clear,0,2012-10-04 06:15:00
1:35 AM,62.6,50.0,63,29.96,10.0,Calm,Calm,-,N/A,,Clear,0,2012-10-04 06:35:00
1:55 AM,62.6,50.0,63,29.96,10.0,Calm,Calm,-,N/A,,Clear,0,2012-10-04 06:55:00
2:15 AM,62.6,50.0,63,29.96,10.0,Calm,Calm,-,N/A,,Clear,0,2012-10-04 07:15:00
2:35 AM,62.6,50.0,63,29.96,10.0,Calm,Calm,-,N/A,,Clear,0,2012-10-04 07:35:00
3:15 AM,60.8,50.0,68,29.96,10.0,Calm,Calm,-,N/A,,Clear,0,2012-10-04 08:15:00
3:35 AM,62.6,50.0,63,29.96,10.0,Calm,Calm,-,N/A,,Clear,0,2012-10-04 08:35:00
3:55 AM,60.8,50.0,68,29.96,10.0,Calm,Calm,-,N/A,,Clear,0,2012-10-04 08:55:00
4:15 AM,60.8,51.8,72,29.97,10.0,Calm,Calm,-,N/A,,Clear,0,2012-10-04 09:15:00
4:35 AM,60.8,51.8,72,29.97,10.0,Calm,Calm,-,N/A,,Clear,0,2012-10-04 09:35:00
4:55 AM,60.8,51.8,72,29.97,10.0,Calm,Calm,-,N/A,,Clear,0,2012-10-04 09:55:00
5:15 AM,60.8,51.8,72,29.98,10.0,Calm,Calm,-,N/A,,Clear,0,2012-10-04 10:15:00
5:35 AM,59.0,51.8,77,30.06,10.0,NNW,12.7,-,N/A,,Clear,330,2012-10-04 10:35:00
5:55 AM,59.0,51.8,77,30.07,10.0,Calm,Calm,-,N/A,,Clear,0,2012-10-04 10:55:00
6:15 AM,59.0,51.8,77,30.08,10.0,Calm,Calm,-,N/A,,Clear,0,2012-10-04 11:15:00
6:35 AM,57.2,51.8,82,30.07,10.0,Calm,Calm,-,N/A,,Clear,0,2012-10-04 11:35:00
6:55 AM,55.4,51.8,88,30.06,10.0,Calm,Calm,-,N/A,,Clear,0,2012-10-04 11:55:00
7:15 AM,55.4,51.8,88,30.09,10.0,Calm,Calm,-,N/A,,Clear,0,2012-10-04 12:15:00
7:35 AM,55.4,51.8,88,30.09,10.0,Calm,Calm,-,N/A,,Clear,0,2012-10-04 12:35:00
7:55 AM,57.2,51.8,82,30.10,10.0,Calm,Calm,-,N/A,,Clear,0,2012-10-04 12:55:00
8:15 AM,55.4,51.8,88,30.11,10.0,Calm,Calm,-,N/A,,Clear,0,2012-10-04 13:15:00
8:35 AM,57.2,51.8,82,30.12,10.0,Calm,Calm,-,N/A,,Clear,0,2012-10-04 13:35:00
8:55 AM,59.0,51.8,77,30.14,10.0,North,18.4,23.0,N/A,,Scattered Clouds,360,2012-10-04 13:55:00
9:15 AM,55.4,42.8,63,30.16,10.0,North,19.6,27.6,N/A,,Overcast,360,2012-10-04 14:15:00
9:35 AM,55.4,42.8,63,30.17,10.0,North,20.7,27.6,N/A,,Overcast,360,2012-10-04 14:35:00
10:15 AM,55.4,39.2,54,30.19,10.0,North,17.3,25.3,N/A,,Overcast,360,2012-10-04 15:15:00
10:35 AM,55.4,37.4,51,30.19,10.0,North,23.0,31.1,N/A,,Overcast,360,2012-10-04 15:35:00
10:55 AM,55.4,37.4,51,30.19,10.0,North,26.5,32.2,N/A,,Overcast,10,2012-10-04 15:55:00
11:15 AM,55.4,39.2,54,30.20,10.0,North,16.1,29.9,N/A,,Overcast,360,2012-10-04 16:15:00
11:35 AM,55.4,39.2,54,30.21,10.0,North,17.3,25.3,N/A,,Overcast,360,2012-10-04 16:35:00
11:55 AM,55.4,39.2,54,30.21,10.0,North,20.7,25.3,N/A,,Overcast,10,2012-10-04 16:55:00
12:15 PM,55.4,39.2,54,30.22,10.0,NNE,13.8,-,N/A,,Overcast,20,2012-10-04 17:15:00
12:35 PM,55.4,39.2,54,30.22,10.0,North,18.4,23.0,N/A,,Mostly Cloudy,10,2012-10-04 17:35:00
12:55 PM,57.2,39.2,51,30.22,10.0,North,16.1,23.0,N/A,,Mostly Cloudy,360,2012-10-04 17:55:00
1:15 PM,57.2,39.2,51,30.22,10.0,North,19.6,-,N/A,,Overcast,10,2012-10-04 18:15:00
1:35 PM,57.2,39.2,51,30.22,10.0,North,17.3,23.0,N/A,,Overcast,360,2012-10-04 18:35:00
1:55 PM,59.0,39.2,48,30.20,10.0,North,16.1,21.9,N/A,,Mostly Cloudy,350,2012-10-04 18:55:00
2:15 PM,59.0,39.2,48,30.21,10.0,North,9.2,19.6,N/A,,Overcast,10,2012-10-04 19:15:00
2:35 PM,-9999,-9999,N/A,-9999,-9999.0,North,-9999.0,-,N/A,,Unknown,0,2012-10-04 19:35:00
2:55 PM,-9999,-9999,N/A,-9999,-9999.0,North,-9999.0,-,N/A,,Unknown,0,2012-10-04 19:55:00
3:15 PM,60.8,39.2,45,30.19,10.0,North,15.0,19.6,N/A,,Mostly Cloudy,10,2012-10-04 20:15:00
3:35 PM,60.8,39.2,45,30.19,10.0,Calm,Calm,-,N/A,,Mostly Cloudy,0,2012-10-04 20:35:00
3:55 PM,60.8,39.2,45,30.19,10.0,Calm,Calm,-,N/A,,Overcast,0,2012-10-04 20:55:00
4:15 PM,60.8,37.4,42,30.19,10.0,Calm,Calm,-,N/A,,Mostly Cloudy,0,2012-10-04 21:15:00
4:35 PM,60.8,37.4,42,30.19,10.0,North,5.8,17.3,N/A,,Overcast,350,2012-10-04 21:35:00
5:15 PM,60.8,37.4,42,30.18,10.0,Calm,Calm,-,N/A,,Overcast,0,2012-10-04 22:15:00
5:35 PM,60.8,37.4,42,30.18,10.0,NNE,3.5,-,N/A,,Overcast,20,2012-10-04 22:35:00
5:55 PM,59.0,37.4,45,30.17,10.0,North,3.5,-,N/A,,Overcast,10,2012-10-04 22:55:00
6:15 PM,59.0,37.4,45,30.17,10.0,Calm,Calm,-,N/A,,Overcast,0,2012-10-04 23:15:00
6:35 PM,59.0,37.4,45,30.18,10.0,Calm,Calm,-,N/A,,Overcast,0,2012-10-04 23:35:00
6:55 PM,59.0,37.4,45,30.17,10.0,Calm,Calm,-,N/A,,Overcast,0,2012-10-04 23:55:00
7:15 PM,59.0,37.4,45,30.17,10.0,Calm,Calm,-,N/A,,Overcast,0,2012-10-05 00:15:00
7:35 PM,59.0,37.4,45,30.17,10.0,Calm,Calm,-,N/A,,Overcast,0,2012-10-05 00:35:00
7:55 PM,59.0,37.4,45,30.17,10.0,Calm,Calm,-,N/A,,Overcast,0,2012-10-05 00:55:00
8:15 PM,59.0,37.4,45,30.18,10.0,Calm,Calm,-,N/A,,Overcast,0,2012-10-05 01:15:00
8:35 PM,59.0,37.4,45,30.17,10.0,NNE,9.2,-,N/A,,Overcast,30,2012-10-05 01:35:00
8:55 PM,59.0,37.4,45,30.18,10.0,Calm,Calm,-,N/A,,Overcast,0,2012-10-05 01:55:00
9:15 PM,59.0,37.4,45,30.18,10.0,Calm,Calm,-,N/A,,Overcast,0,2012-10-05 02:15:00
9:35 PM,59.0,37.4,45,30.19,10.0,Calm,Calm,-,N/A,,Overcast,0,2012-10-05 02:35:00
9:55 PM,57.2,37.4,48,30.19,10.0,Calm,Calm,-,N/A,,Overcast,0,2012-10-05 02:55:00
10:15 PM,57.2,37.4,48,30.20,10.0,Calm,Calm,-,N/A,,Overcast,0,2012-10-05 03:15:00
10:35 PM,57.2,37.4,48,30.20,10.0,Calm,Calm,-,N/A,,Overcast,0,2012-10-05 03:35:00
10:55 PM,57.2,37.4,48,30.20,10.0,Calm,Calm,-,N/A,,Overcast,0,2012-10-05 03:55:00
11:15 PM,55.4,35.6,47,30.19,10.0,NNE,3.5,-,N/A,,Overcast,30,2012-10-05 04:15:00
11:55 PM,55.4,35.6,47,30.19,10.0,NNE,10.4,17.3,N/A,,Overcast,30,2012-10-05 04:55:00